Valparaiso, FL

4:54 PM CDT on April 25, 2017 (GMT -0500)
Eglin Air Force Base

Weather History for KVPS - January, 2012

Change the Weather History Date:

Tuesday, January 10, 2012

  Actual Average Record
Temperature  
Mean Temperature 65 °F -  
Max Temperature 68 °F 58 °F 78 °F (1957)
Min Temperature 62 °F 37 °F 14 °F (1970)
Growing Degree Days 15 (Base 50)    
Moisture  
Dew Point 63 °F    
Average Humidity 97    
Maximum Humidity 100    
Minimum Humidity 86    
Precipitation  
Precipitation 0.14 in - - ()
Sea Level Pressure  
Sea Level Pressure 29.90 in    
Wind  
Wind Speed 9 mph (SE)    
Max Wind Speed 22 mph    
Max Gust Speed 30 mph    
Visibility 7 miles    
Events Rain    
Averages and records for this station are not official NWS values.
T = Trace of Precipitation, MM = Missing Value Source: NWS Daily Summary

Daily Weather History Graph

Daily Weather History Graph

Search for Another Location

Airport or City:

Trip Planner

Search our weather history database for the weather conditions in past years. The results will help you decide how hot, cold, wet, or windy it might be!

Date:

Astronomy

Jan. 10, 2012 Rise Set
Actual Time 6:44 AM CST 5:03 PM CST
Civil Twilight 6:17 AM CST 5:29 PM CST
Nautical Twilight 5:48 AM CST 5:58 PM CST
Astronomical Twilight 5:19 AM CST 6:28 PM CST
Moon 6:45 PM CST (1/10) 7:29 AM CST (1/10)
Length of Visible Light 11h 11m
Length of Day
10h 18m
Full, 98% of the Moon is Illuminated
Jan 10
Full
Jan 16
Last Quarter
Jan 23
New
Jan 30
First Quarter
Feb 7
Full

Hourly Weather History & Observations

Time (CST) Temp. Dew Point Humidity Pressure Visibility Wind Dir Wind Speed Gust Speed Precip Events Conditions
12:17 AM 62.6 °F 62.6 °F 100% 30.06 in 7.0 mi ESE 5.8 mph - N/A   Overcast
12:55 AM 62.6 °F 62.6 °F 100% 30.06 in 6.0 mi ESE 4.6 mph - N/A   Overcast
1:55 AM 63.0 °F 63.0 °F 100% 30.04 in 6.0 mi East 2.3 mph - N/A   Overcast
2:08 AM 62.6 °F 62.6 °F 100% 30.04 in 6.0 mi East 4.6 mph - N/A   Overcast
2:55 AM 62.8 °F 62.8 °F 100% 30.04 in 6.0 mi ESE 4.6 mph - N/A   Overcast
3:47 AM 62.6 °F 62.6 °F 100% 30.02 in 6.0 mi ESE 5.8 mph - N/A   Overcast
3:55 AM 62.4 °F 62.4 °F 100% 30.02 in 6.0 mi East 6.9 mph - N/A   Overcast
4:55 AM 62.4 °F 62.4 °F 100% 30.03 in 5.0 mi ESE 2.3 mph - N/A   Overcast
5:12 AM 62.6 °F 62.6 °F 100% 30.03 in 5.0 mi East 5.8 mph - N/A   Overcast
5:55 AM 62.6 °F 62.6 °F 100% 30.04 in 6.0 mi ESE 6.9 mph - N/A   Overcast
6:55 AM 62.6 °F 62.6 °F 100% 30.03 in 3.0 mi ESE 6.9 mph - N/A   Overcast
7:55 AM 62.2 °F 62.2 °F 100% 30.02 in 3.0 mi ESE 11.5 mph - N/A   Overcast
8:56 AM 62.8 °F 62.8 °F 100% 30.03 in 4.0 mi ESE 10.4 mph - N/A   Overcast
9:58 AM 63.3 °F 63.1 °F 99% 30.01 in 4.0 mi ESE 11.5 mph - N/A   Overcast
10:27 AM 64.4 °F 64.4 °F 100% 30.00 in 4.0 mi ESE 10.4 mph - N/A   Overcast
10:37 AM 64.4 °F 64.4 °F 100% 30.01 in 10.0 mi ESE 10.4 mph - N/A   Overcast
10:56 AM 64.8 °F 64.8 °F 100% 30.01 in 5.0 mi SE 10.4 mph - N/A   Overcast
11:09 AM 66.2 °F 66.2 °F 100% 29.99 in 10.0 mi SE 10.4 mph - N/A   Overcast
11:57 AM 66.6 °F 66.4 °F 99% 29.95 in 10.0 mi SE 13.8 mph - N/A   Overcast
12:50 PM 68.0 °F 68.0 °F 100% 29.93 in 5.0 mi SE 8.1 mph - N/A Rain Light Rain
12:55 PM 67.3 °F 67.3 °F 100% 29.95 in 5.0 mi SE 9.2 mph - 0.00 in Rain Light Rain
1:46 PM 66.2 °F 62.6 °F 88% 29.91 in 6.0 mi South 11.5 mph - N/A Rain Light Rain
1:56 PM 65.7 °F 63.7 °F 93% 29.92 in 6.0 mi South 10.4 mph - 0.01 in Rain Light Rain
2:58 PM 64.6 °F 63.7 °F 97% 29.89 in 6.0 mi SSE 17.3 mph - 0.02 in Rain Light Rain
3:55 PM 63.7 °F 60.4 °F 89% 29.89 in 3.0 mi South 21.9 mph - 0.05 in Rain Light Rain
4:59 PM 62.4 °F 59.0 °F 89% 29.86 in 5.0 mi SSE 18.4 mph - 0.05 in Rain Light Rain
5:26 PM 62.6 °F 60.8 °F 94% 29.84 in 7.0 mi SSE 11.5 mph - N/A   Overcast
5:58 PM 64.0 °F 61.3 °F 91% 29.82 in 8.0 mi SE 13.8 mph - 0.01 in   Overcast
6:20 PM 64.4 °F 62.6 °F 94% 29.80 in 8.0 mi SE 12.7 mph - N/A   Overcast
6:41 PM 64.4 °F 64.4 °F 100% 29.80 in 10.0 mi SE 15.0 mph - N/A   Overcast
6:49 PM 64.4 °F 64.4 °F 100% 29.80 in 10.0 mi SE 13.8 mph - N/A   Overcast
6:56 PM 64.4 °F 64.4 °F 100% 29.82 in 10.0 mi SE 12.7 mph - N/A   Overcast
7:06 PM 64.4 °F 64.4 °F 100% 29.80 in 8.0 mi SE 12.7 mph - N/A   Overcast
7:25 PM 64.4 °F 64.4 °F 100% 29.80 in 10.0 mi SSE 13.8 mph 26.5 mph N/A   Overcast
7:39 PM 66.2 °F 62.6 °F 88% 29.80 in 10.0 mi SSE 15.0 mph - N/A   Overcast
7:56 PM 65.7 °F 63.9 °F 94% 29.80 in 10.0 mi SE 17.3 mph 24.2 mph N/A   Overcast
8:58 PM 66.9 °F 62.6 °F 86% 29.79 in 10.0 mi SSE 20.7 mph 29.9 mph N/A   Overcast
9:47 PM 66.2 °F 64.4 °F 94% 29.78 in 10.0 mi SSE 16.1 mph 25.3 mph N/A   Overcast
9:58 PM 66.2 °F 65.3 °F 97% 29.80 in 10.0 mi SE 16.1 mph 24.2 mph N/A   Overcast
10:23 PM 66.2 °F 66.2 °F 100% 29.77 in 10.0 mi SE 11.5 mph 21.9 mph N/A   Overcast
10:56 PM 66.2 °F 65.8 °F 99% 29.77 in 8.0 mi SSE 15.0 mph - 0.00 in Rain Light Rain
11:14 PM 66.2 °F 62.6 °F 88% 29.74 in 10.0 mi SSE 17.3 mph 23.0 mph N/A   Overcast
11:22 PM 66.2 °F 62.6 °F 88% 29.74 in 10.0 mi SSE 18.4 mph 26.5 mph N/A Rain Light Rain
11:43 PM 66.2 °F 62.6 °F 88% 29.72 in 10.0 mi SSE 19.6 mph 26.5 mph N/A   Overcast
11:55 PM 67.1 °F 63.3 °F 88% 29.73 in 10.0 mi SSE 18.4 mph 28.8 mph 0.00 in   Overcast